Theta_e
296 296 297 297 297 296 297 298 298 299 301 303 306 309 313 314 312 312 313 313 313 313 313 313 312 313 312 310 309 309 308 308 307 308 309 309 310 310 311 310 310 311 311 311 312 311 312 314 315 318 322 322 318 316 317 317 315 321 324 321 319 320 320 318 318 321 320 319 317 316 315 315 315 315 315 315 316 314 313 315 316 315 314 314 318 324 327
296 296 297 297 296 296 297 298 298 299 301 302 305 309 312 313 312 311 313 312 312 313 313 312 312 311 311 311 311 311 309 308 308 308 308 309 310 310 310 311 310 310 310 311 312 311 311 313 315 316 317 318 317 315 316 316 315 321 325 322 318 318 319 319 322 323 323 321 320 318 319 318 316 316 317 316 316 317 318 316 316 316 314 312 317 324 326
296 296 297 297 296 296 298 298 298 300 301 302 305 309 312 313 312 310 311 311 311 312 312 312 312 312 312 313 312 311 311 311 308 308 308 308 309 309 309 310 310 310 310 310 310 311 312 312 313 316 318 318 317 315 316 316 315 316 321 319 317 319 320 319 320 321 322 322 321 320 318 318 318 318 318 318 315 316 317 316 314 316 314 314 319 326 326
296 296 297 297 296 297 298 298 298 300 301 302 305 310 312 312 310 308 308 310 310 311 312 311 312 312 312 313 312 310 311 311 309 309 308 309 309 310 309 310 310 310 310 311 310 310 311 312 311 315 319 318 315 316 316 315 316 320 322 320 318 319 320 320 320 321 322 321 321 319 317 317 318 318 319 321 319 317 317 315 314 316 317 320 324 328 328
296 296 297 296 296 297 298 298 298 300 302 303 306 311 313 310 308 307 307 308 309 311 311 311 311 311 311 312 312 311 311 311 310 310 309 308 309 309 309 310 310 310 311 311 311 310 310 311 310 313 316 316 316 317 315 314 320 325 322 316 318 318 317 319 321 320 320 320 319 318 317 317 317 318 319 320 321 323 320 316 316 318 319 322 326 328 328
296 296 297 296 296 297 298 298 298 300 303 304 307 312 311 308 308 308 308 309 310 311 311 311 311 311 311 311 312 312 312 311 310 311 310 309 309 309 309 310 309 309 310 310 311 311 311 312 314 316 318 317 316 316 315 316 321 322 317 314 317 318 317 319 320 318 317 317 317 318 318 317 316 317 319 319 322 326 326 321 320 322 322 324 327 327 328
296 296 296 296 296 297 297 297 298 300 305 306 309 310 309 308 309 309 309 309 310 311 310 310 310 310 310 311 311 311 312 311 309 310 311 311 311 310 311 311 310 309 310 312 314 316 316 318 319 320 320 319 318 318 319 319 318 317 316 317 319 318 318 318 319 319 317 315 316 317 316 316 317 317 317 317 319 323 326 326 326 326 326 327 327 327 327
296 296 296 297 296 297 297 297 298 301 307 309 308 308 307 307 307 308 309 308 307 309 309 309 309 309 309 309 310 310 311 311 310 309 310 311 311 310 312 312 311 312 312 313 314 315 317 318 318 319 319 319 318 319 319 319 318 316 316 320 322 320 319 319 318 318 317 316 316 316 315 316 317 317 317 316 317 319 322 325 324 326 327 327 326 326 324
296 296 296 297 296 297 297 297 297 302 308 311 308 305 307 308 307 308 310 307 305 307 308 308 308 308 307 308 309 308 308 309 310 310 308 310 310 309 310 311 311 313 313 311 311 311 312 313 314 314 315 316 316 316 316 317 319 319 319 322 323 321 319 319 319 318 318 317 317 316 315 316 316 317 318 317 318 318 319 322 323 324 325 324 323 323 322
296 296 296 296 296 296 297 297 298 301 307 311 310 305 305 308 308 308 310 308 304 306 306 306 307 307 307 308 307 307 308 307 309 310 309 308 308 308 309 310 311 311 310 309 309 309 309 310 311 311 312 312 313 314 314 314 317 319 320 321 321 322 320 318 318 318 317 316 315 315 315 316 317 318 319 319 318 318 317 319 322 323 323 322 321 322 320
296 295 296 296 296 296 297 297 298 300 303 308 310 308 304 307 309 310 310 307 304 305 305 304 305 305 306 307 306 306 307 307 308 310 309 309 308 308 308 309 309 309 308 307 308 308 309 309 309 310 311 311 312 312 313 312 313 318 319 319 320 321 320 319 319 318 317 317 318 316 316 318 318 318 319 320 319 317 317 318 318 319 321 321 319 319 318
295 295 296 296 296 296 297 297 298 299 301 304 308 308 303 305 309 309 308 306 304 305 305 304 304 304 304 306 306 305 305 306 307 308 308 308 308 308 307 307 307 307 306 306 307 309 310 311 310 310 310 312 312 311 313 313 312 314 316 317 319 320 319 319 318 318 317 317 319 320 320 319 318 316 316 318 318 317 317 317 316 316 318 318 317 316 316
295 295 295 296 296 296 297 297 298 299 300 302 307 307 303 305 309 309 307 305 303 304 305 304 305 305 304 304 305 306 305 305 306 306 306 307 307 306 306 306 306 305 305 306 307 309 312 313 312 312 311 312 312 311 312 313 313 312 314 316 318 318 317 317 318 318 317 317 319 321 320 318 316 315 315 317 319 319 318 318 317 316 316 317 316 316 316
295 295 295 296 296 296 297 297 298 298 300 302 306 307 303 305 309 310 308 306 303 303 304 304 304 306 305 303 304 306 306 306 307 307 306 305 306 304 304 305 305 305 305 307 308 310 311 312 313 313 313 312 312 313 312 313 313 313 313 314 316 317 317 317 317 318 317 317 319 320 319 318 317 316 315 315 317 317 317 318 319 317 315 316 315 313 312
295 295 295 296 296 296 296 297 297 298 300 303 306 306 304 306 309 310 309 307 303 303 303 303 304 306 306 305 303 305 306 306 306 307 306 305 304 304 304 304 305 305 306 307 309 310 311 311 311 312 313 313 314 315 313 313 314 314 313 313 313 315 316 316 316 317 316 316 318 319 319 319 317 314 312 312 313 315 315 317 318 317 316 316 313 311 310
296 295 294 296 296 296 296 297 297 298 300 302 305 305 303 305 307 309 309 306 303 303 302 302 305 305 305 305 304 304 305 305 305 306 306 304 303 303 304 304 305 306 306 307 308 309 309 310 310 311 312 313 314 314 314 313 314 314 313 312 312 312 314 314 313 315 315 315 316 317 318 317 315 312 311 310 310 312 314 316 316 315 315 314 311 309 309
296 295 294 295 296 296 295 296 297 298 299 301 304 305 304 304 305 307 308 305 302 302 302 302 304 304 304 304 305 304 304 305 305 305 305 305 303 302 304 305 306 306 305 305 307 308 309 309 310 311 312 311 311 312 312 313 314 313 312 313 314 313 313 313 313 314 314 313 314 315 314 314 312 311 310 309 309 311 314 315 314 313 312 312 311 309 309
296 295 294 295 296 296 295 296 297 298 299 301 304 305 303 303 304 306 307 305 302 301 301 301 302 303 303 304 304 304 304 305 306 305 305 305 304 302 304 304 305 305 306 305 307 307 308 308 309 310 310 310 309 310 311 312 312 312 311 312 313 313 312 312 312 312 312 312 313 313 312 311 309 309 309 307 309 313 315 314 313 311 311 311 310 310 309
296 295 294 295 296 296 295 295 297 298 299 301 304 305 303 302 304 306 305 304 302 301 301 301 301 301 302 302 303 303 303 303 305 305 305 305 304 303 304 305 305 305 307 307 306 306 307 307 307 308 309 309 309 309 310 309 309 310 310 310 311 311 311 311 311 311 311 311 311 312 311 309 307 308 308 308 311 313 313 311 311 310 311 310 310 308 307
296 295 294 294 296 296 295 295 295 297 298 299 302 305 304 301 302 304 304 304 303 301 301 301 300 300 301 301 301 301 302 302 303 304 305 305 304 304 306 306 305 305 307 307 306 305 305 306 306 306 306 308 308 308 308 308 307 307 307 309 310 310 310 311 311 310 310 311 312 313 311 309 307 308 309 308 310 311 309 308 308 308 308 308 308 307 306
296 295 295 294 295 296 296 295 294 296 298 298 301 305 305 302 302 303 304 304 303 301 301 301 301 300 300 300 300 300 301 301 302 303 303 303 304 305 305 305 304 305 306 306 307 305 304 305 306 305 306 306 307 306 306 306 306 306 306 307 309 309 309 310 310 309 309 311 311 310 310 307 307 308 307 307 308 308 307 307 307 306 306 307 306 306 306
296 296 295 294 295 296 296 295 294 295 296 298 301 306 306 303 302 303 304 304 302 301 302 302 301 300 300 300 300 300 300 301 301 301 301 302 304 303 304 303 304 304 304 305 307 307 305 305 306 305 305 306 306 306 305 305 306 306 306 306 307 308 308 309 309 308 309 310 309 307 306 306 306 306 306 306 306 306 305 305 305 305 305 305 305 304 304
296 296 295 294 295 296 296 296 295 294 296 298 301 305 306 304 303 304 305 305 303 303 303 303 302 301 300 300 299 299 300 301 301 301 301 302 303 302 302 301 303 304 304 304 305 306 305 304 304 304 304 305 305 306 305 305 305 305 305 306 306 307 307 307 308 307 307 307 307 306 306 306 306 305 305 305 306 305 305 304 303 304 304 303 303 302 302
296 296 295 294 294 295 296 296 295 294 297 300 301 303 305 304 303 304 305 304 303 303 303 302 301 301 301 300 300 300 300 300 301 300 300 301 303 303 302 301 302 303 304 303 304 305 304 303 303 304 304 304 305 304 305 305 305 304 304 305 306 305 305 306 307 307 307 307 306 305 305 305 304 304 304 304 304 304 304 303 302 302 302 301 301 301 301
296 296 295 294 294 295 296 296 296 295 296 300 303 304 305 304 302 303 306 305 304 303 303 302 301 300 301 301 300 300 300 301 301 301 301 301 302 302 302 303 303 303 304 303 303 303 303 303 303 304 304 304 304 304 304 305 304 303 304 305 305 304 303 305 306 306 306 306 305 305 304 304 304 303 303 303 303 303 302 302 302 301 301 301 301 301 300
296 296 295 294 294 295 295 296 296 295 295 298 302 305 305 303 301 303 305 306 305 304 303 302 302 301 301 301 300 300 300 301 301 301 301 301 302 302 302 303 304 304 304 304 302 301 301 301 302 303 303 303 304 303 303 304 304 303 304 304 304 304 304 304 305 306 306 305 305 304 304 304 303 303 303 303 303 302 302 302 301 301 301 301 301 301 300
296 296 296 295 294 294 295 296 297 296 296 297 300 304 304 303 302 302 303 305 307 306 305 303 302 302 301 301 300 301 301 301 301 301 301 301 301 301 302 303 303 303 303 302 302 301 302 301 301 301 301 302 303 303 302 302 303 303 303 303 303 304 304 304 304 305 305 305 305 304 305 304 304 303 302 302 302 302 302 302 302 301 301 301 301 301 301
296 296 296 295 293 293 295 295 296 297 296 296 300 304 304 302 302 302 301 302 305 306 306 303 302 302 303 301 301 301 301 301 302 302 301 301 301 301 302 302 302 302 301 301 301 301 301 300 300 301 301 301 303 303 302 301 302 302 303 303 303 303 304 303 304 304 305 305 304 304 304 304 303 302 302 302 302 302 302 301 301 300 300 300 300 300 300
296 296 296 294 293 293 294 295 296 297 296 296 300 305 305 303 303 302 299 299 303 306 305 303 302 302 302 302 301 302 301 301 301 301 301 302 301 301 302 302 302 301 301 300 299 300 300 300 299 300 301 301 302 302 301 300 302 303 303 303 302 302 303 303 303 304 304 304 303 303 303 303 303 302 302 302 301 301 301 300 300 300 300 300 300 299 299
296 296 295 294 294 294 294 295 297 297 297 298 303 307 305 304 305 302 297 297 302 304 304 303 302 302 302 302 302 302 301 301 301 302 302 302 302 301 302 302 301 301 301 300 299 298 300 300 300 300 300 300 300 300 300 301 302 302 302 302 301 301 302 302 302 303 303 302 302 302 302 302 302 301 301 301 300 300 300 299 300 300 299 299 300 300 299
296 295 294 293 294 293 294 295 296 297 300 303 305 306 304 304 303 299 294 296 301 304 304 303 302 301 302 301 301 301 301 301 302 302 302 302 302 302 302 301 300 300 300 300 299 298 298 298 299 301 300 298 298 300 300 300 301 301 301 301 301 301 301 301 302 302 302 301 301 301 301 301 301 301 300 300 299 299 299 299 299 298 297 298 299 299 298
296 294 293 294 294 293 294 295 296 299 303 304 302 301 301 300 299 297 294 296 301 304 304 303 301 300 301 302 301 301 301 302 303 302 302 302 302 302 302 301 301 300 299 299 300 299 298 297 298 300 300 298 298 299 300 300 301 301 301 301 301 300 300 300 301 301 301 301 301 300 300 300 300 300 300 300 299 299 299 299 299 298 297 298 299 298 297
295 294 294 294 293 293 295 296 296 299 301 301 300 302 301 298 297 296 294 297 303 305 303 302 300 300 300 302 302 301 301 302 303 302 302 302 301 301 302 302 301 301 300 299 299 299 299 299 299 299 300 299 298 298 299 300 301 301 301 300 300 300 300 300 300 300 300 300 300 300 300 300 300 300 300 300 299 299 299 298 299 298 297 297 298 298 297
294 294 294 294 293 294 296 297 297 298 299 301 303 305 302 299 297 295 295 300 306 305 301 300 300 300 300 301 302 302 302 302 302 301 301 301 301 301 301 301 301 301 300 300 299 299 299 300 299 299 299 299 298 297 298 299 300 300 300 300 300 300 300 300 299 299 300 300 299 299 299 300 299 299 299 299 299 299 298 298 298 298 297 297 297 297 297
294 294 294 294 294 295 296 298 299 300 302 304 305 303 299 298 298 295 296 303 306 303 299 299 299 300 301 301 302 301 301 301 302 302 301 301 301 301 300 300 301 301 300 300 300 300 300 300 299 299 299 299 298 297 298 299 300 300 299 300 300 300 300 299 299 299 299 299 299 299 299 299 298 298 298 298 298 298 298 298 298 297 297 296 297 297 297
294 294 294 294 295 297 299 300 301 303 305 304 303 300 297 297 296 295 298 303 305 303 301 301 300 300 302 301 301 301 301 302 302 301 301 301 301 300 300 300 300 300 300 300 299 300 301 300 299 299 299 299 299 299 299 300 300 300 300 300 300 300 300 300 300 300 299 299 299 299 299 298 298 298 298 298 298 298 297 298 298 297 296 296 296 296 297
294 294 295 297 298 300 302 302 303 303 302 300 299 298 297 297 298 300 301 303 304 303 302 302 301 301 301 301 300 300 301 301 301 301 301 301 300 300 300 300 299 299 300 300 300 300 300 300 299 298 299 299 299 300 300 300 300 300 300 300 300 299 300 299 299 299 299 299 299 299 299 298 298 298 298 297 297 297 297 297 297 297 297 296 296 297 297
294 295 298 301 302 302 302 303 303 300 298 297 299 300 300 301 302 302 302 301 301 301 301 302 302 301 301 301 301 300 300 301 301 301 301 300 300 300 300 299 299 299 299 299 300 300 299 299 299 299 299 300 300 300 300 300 300 300 299 299 299 299 299 299 299 299 299 299 299 299 298 298 298 298 298 297 298 297 297 297 297 297 297 297 297 297 297
296 298 301 303 303 302 302 301 299 298 298 300 302 302 301 300 301 300 299 300 300 301 301 301 301 301 301 302 301 301 301 301 301 301 301 300 300 299 299 299 299 299 298 299 299 299 299 299 299 299 300 300 300 300 299 299 299 300 299 299 300 300 299 299 299 299 299 299 299 299 298 298 298 297 297 297 298 297 298 298 297 297 297 297 297 296 296
300 302 303 302 302 302 300 298 297 299 301 302 301 300 299 299 299 299 299 300 300 300 301 301 301 300 301 301 300 301 302 301 300 301 300 300 300 299 299 299 299 299 298 299 299 299 299 299 299 299 299 300 299 299 299 299 299 299 299 299 300 300 299 299 299 299 299 299 299 299 299 298 298 297 297 297 297 297 297 298 297 297 297 296 296 296 296
302 303 303 302 302 302 300 299 300 302 302 300 298 298 298 299 299 299 300 300 300 300 300 301 301 301 301 300 300 301 301 301 301 300 299 299 299 299 299 299 299 298 298 299 299 299 299 299 298 299 299 299 299 299 299 299 299 299 299 299 300 299 299 299 299 299 299 299 299 299 298 298 298 298 298 298 298 297 297 297 297 297 297 297 296 296 296
298 300 301 302 302 301 301 301 301 300 299 298 298 298 298 298 299 300 300 300 300 300 300 301 301 301 301 300 300 301 301 301 300 300 299 299 299 298 299 299 299 298 298 299 299 299 299 298 299 299 299 299 299 299 299 299 298 298 299 299 299 299 299 299 299 299 299 299 299 299 298 298 298 298 297 297 298 298 297 297 297 297 297 296 296 296 296
298 300 301 302 302 300 301 301 300 299 298 297 298 298 298 299 299 300 300 299 300 300 301 301 301 301 301 301 301 301 301 300 300 299 299 299 299 298 299 298 298 298 299 299 299 299 299 299 299 299 299 299 298 298 299 298 298 298 298 299 299 299 299 299 299 299 299 298 298 298 298 298 298 297 297 297 297 297 297 297 297 296 296 296 296 296 296
301 302 302 301 300 299 299 298 298 298 298 297 298 299 300 299 300 300 300 299 300 301 301 300 300 301 301 301 301 300 300 300 299 299 299 299 299 299 298 298 299 299 299 299 299 299 299 299 299 299 299 298 298 298 298 298 298 298 298 298 299 299 299 299 299 299 298 298 298 298 298 298 297 297 297 297 297 297 297 297 297 296 296 296 296 296 296
301 300 299 299 298 298 298 298 297 298 299 299 299 300 301 300 300 301 300 300 300 301 300 300 300 300 300 300 300 299 299 299 299 299 299 299 299 299 299 299 299 299 299 299 299 299 299 299 299 298 298 298 298 298 298 298 298 298 298 298 298 298 299 299 299 299 298 298 298 298 298 297 297 297 297 297 297 297 297 296 296 296 296 296 296 296 296
300 298 298 298 298 297 298 297 298 299 299 299 300 301 301 300 301 301 301 300 300 300 300 300 300 300 300 300 300 299 299 299 299 299 299 299 299 299 299 298 299 299 298 298 299 299 299 299 298 298 298 298 298 297 298 297 298 298 298 297 298 298 298 298 299 299 298 298 298 298 298 297 297 297 297 297 296 296 296 296 296 296 296 296 296 296 296
300 299 298 298 298 298 298 298 299 300 300 300 301 301 301 300 301 301 300 300 300 300 300 300 300 300 300 300 300 300 300 299 299 299 299 299 299 299 299 298 298 298 298 298 298 298 298 298 298 298 298 298 298 298 298 298 297 297 297 297 298 298 299 298 299 299 298 298 298 298 298 298 297 297 297 297 297 297 296 296 296 296 296 296 296 296 296
299 299 299 298 297 298 298 300 300 301 300 300 300 300 300 300 300 300 300 300 300 300 300 300 300 300 300 300 299 299 299 299 299 299 299 298 298 298 299 298 298 298 298 298 299 298 298 298 298 298 298 298 298 298 298 298 297 298 298 297 298 298 298 299 299 299 299 298 298 298 298 297 297 297 297 297 297 297 296 296 296 296 296 296 296 296 296
299 299 299 298 298 299 300 300 301 300 300 300 300 300 300 300 300 300 300 300 300 300 300 300 299 299 299 299 299 299 299 299 299 299 298 298 298 298 298 298 298 298 298 298 298 298 298 298 298 298 298 298 298 298 298 298 298 299 298 298 298 298 298 298 299 298 298 297 297 298 298 298 298 298 297 297 297 297 297 297 297 297 297 297 296 296 296
299 299 299 299 299 300 300 300 300 300 300 300 300 300 300 300 300 301 301 300 300 300 300 299 298 298 298 299 299 299 299 299 298 299 299 299 298 298 299 299 299 299 299 298 298 298 298 298 298 298 298 298 298 298 298 299 299 299 299 299 299 299 298 298 298 299 298 298 297 298 298 298 298 298 298 297 297 298 297 297 297 297 297 297 297 297 296
298 299 299 299 300 300 300 300 300 300 300 300 300 300 300 300 300 301 300 300 300 299 299 299 299 299 299 299 299 299 299 299 298 299 299 299 298 298 299 299 299 298 298 298 298 298 297 298 298 298 297 297 298 299 299 298 298 298 298 298 298 298 298 298 298 298 299 298 298 298 298 298 297 297 297 297 297 297 297 297 297 297 297 297 297 297 296
299 299 299 300 300 300 300 300 300 300 300 300 300 300 300 300 300 301 300 300 299 299 299 299 299 298 299 299 299 298 298 298 298 298 299 298 298 298 298 298 298 298 298 298 298 298 297 298 298 297 297 298 298 298 299 299 299 299 299 299 298 298 298 298 298 298 298 298 298 298 298 298 298 297 297 297 297 297 297 297 297 297 297 297 297 297 297
Wind_Speed
22 24 26 27 27 26 26 28 28 29 28 22 17 13 7 4 1 4 5 2 5 5 5 5 5 6 8 11 14 14 10 8 11 10 8 7 8 8 8 11 13 10 9 8 8 10 7 4 5 3 5 8 4 3 11 9 4 2 6 6 1 1 2 4 4 3 7 11 13 12 11 8 9 7 5 5 5 6 6 4 3 1 2 2 2 3 2
23 24 26 27 27 26 26 27 27 26 24 21 16 10 5 4 3 3 4 1 3 4 4 4 5 6 9 10 12 14 12 9 9 9 9 7 7 8 8 10 14 11 9 10 11 10 7 3 4 4 3 2 3 4 9 7 2 2 1 3 2 1 2 2 3 2 3 5 7 8 7 8 5 6 7 9 8 5 4 4 3 2 4 5 1 2 3
22 24 26 27 27 26 26 26 26 24 22 19 12 6 5 6 3 1 3 2 2 3 2 5 6 7 8 9 9 11 10 8 9 10 10 8 7 8 7 10 13 10 9 12 13 11 8 7 3 3 2 0 2 3 3 6 6 3 2 2 1 1 1 1 4 5 5 2 2 3 2 6 6 9 11 12 12 7 3 2 4 4 3 3 1 2 5
22 23 26 27 27 26 26 26 26 22 20 20 13 7 6 4 2 2 2 2 3 2 3 6 7 6 7 7 7 9 8 6 7 9 8 7 7 6 7 10 11 9 9 11 12 11 10 10 7 2 5 3 3 6 6 6 6 1 4 2 2 1 0 0 3 2 2 2 1 3 4 6 7 12 16 15 11 8 5 4 4 3 1 1 2 6 8
21 22 25 27 27 26 26 26 26 21 17 19 14 7 6 4 2 4 4 2 3 4 5 7 6 5 6 6 6 10 11 5 3 8 7 4 6 6 7 9 9 7 8 8 9 11 11 12 12 6 4 5 1 6 8 11 11 7 3 4 2 1 3 2 2 2 4 6 4 4 4 6 10 13 14 16 15 11 6 6 5 3 2 1 5 11 11
21 22 25 27 27 27 26 26 26 21 16 16 12 6 3 3 2 4 2 3 4 5 6 7 6 8 7 4 6 11 12 4 1 5 6 3 3 4 5 9 10 11 10 8 8 9 10 10 7 3 4 4 2 4 6 8 9 9 8 8 4 4 6 4 4 6 6 5 6 5 3 1 6 9 10 12 15 15 12 8 5 2 2 3 8 13 12
20 21 24 26 26 26 27 27 26 22 17 14 9 4 4 4 2 4 2 2 4 4 6 8 6 9 9 4 5 10 10 6 4 3 5 6 6 4 4 8 10 10 9 6 4 4 5 5 6 8 7 2 2 1 2 2 3 6 8 5 3 4 5 5 6 7 8 7 6 6 7 7 7 5 6 7 10 11 10 11 11 5 10 11 12 15 13
20 21 22 25 26 25 26 27 26 22 18 14 6 4 6 5 3 4 4 3 4 3 5 7 6 7 8 6 7 9 9 9 9 7 7 5 6 7 7 8 9 10 9 8 8 7 7 7 7 7 7 3 1 1 2 2 5 8 6 1 3 3 1 3 5 4 6 7 5 6 7 8 9 9 9 6 6 7 5 6 9 6 10 13 11 12 10
19 20 21 23 24 25 26 27 26 23 18 14 7 6 8 7 3 3 5 3 4 2 3 5 4 5 6 5 7 8 9 12 10 7 6 8 8 10 11 10 8 9 9 9 10 10 9 8 8 8 7 4 2 1 4 5 3 4 1 4 4 4 0 1 4 4 4 5 6 5 5 5 8 9 10 10 6 3 5 6 4 2 6 11 10 6 6
19 19 20 22 23 24 24 25 26 23 20 15 8 6 10 9 5 5 6 3 4 4 4 5 5 4 4 4 7 8 9 11 9 6 6 9 10 11 12 11 6 4 8 12 11 11 10 9 8 7 7 7 5 3 4 5 1 3 3 4 3 5 2 1 3 4 3 5 7 6 4 4 5 4 5 9 7 5 4 5 7 4 5 6 5 6 8
18 18 19 21 22 22 23 23 24 23 22 17 10 6 10 9 6 6 6 3 3 4 4 5 5 5 2 0 4 7 8 9 9 7 6 7 10 10 11 11 7 4 8 11 11 10 10 9 8 6 7 9 8 5 6 8 3 5 7 5 1 5 4 1 2 3 2 3 3 5 6 3 2 3 7 7 3 8 6 5 7 6 5 4 5 8 11
18 17 18 20 20 21 21 21 21 21 21 19 12 8 10 11 8 6 5 3 4 4 4 5 5 7 6 2 2 4 4 6 8 7 6 7 9 10 9 9 8 6 9 12 12 11 10 10 8 8 8 8 9 6 5 5 3 3 7 8 5 4 2 1 1 1 1 5 5 3 5 2 2 4 8 8 3 4 5 6 7 7 10 10 10 11 12
17 17 17 18 19 20 20 20 20 18 19 19 15 9 11 12 8 5 5 5 5 5 6 6 7 8 8 7 6 1 4 2 5 6 6 6 7 9 8 8 8 9 11 13 13 12 9 6 6 6 6 6 7 6 4 3 2 2 2 7 7 3 0 2 1 2 2 1 1 1 1 2 3 6 9 9 6 2 4 6 5 6 8 9 10 11 11
17 17 17 17 18 19 19 18 18 18 17 18 16 10 10 13 9 5 5 4 4 6 7 6 7 9 8 8 10 5 3 3 2 3 5 5 7 8 8 8 9 10 9 10 11 8 4 3 3 3 2 3 4 4 3 3 3 4 3 2 5 5 2 1 2 1 1 2 2 1 1 2 3 6 8 7 5 3 2 2 3 3 5 7 9 12 13
18 17 16 16 17 17 18 17 17 17 17 18 15 9 10 14 12 7 6 5 2 5 6 6 7 11 9 8 9 8 3 0 1 2 3 3 4 4 4 7 10 10 8 7 7 5 3 3 3 2 1 3 2 3 5 6 5 6 6 4 3 3 3 3 3 3 3 3 2 1 1 0 2 6 9 8 6 7 6 1 3 4 4 7 11 13 13
17 16 15 15 16 16 16 16 16 16 16 18 17 10 10 15 16 12 8 5 3 5 6 8 7 8 8 7 8 8 6 5 4 2 1 1 4 3 4 5 6 8 8 7 5 4 3 2 3 3 1 2 2 2 4 3 4 9 10 7 6 4 3 4 4 3 3 3 2 1 0 1 2 4 7 9 9 9 6 1 2 3 3 8 12 13 12
17 16 15 14 14 15 15 15 15 15 14 17 18 12 10 15 18 15 9 3 5 5 7 10 9 6 5 6 6 7 5 5 6 5 3 4 6 5 6 5 1 4 5 6 5 4 3 2 3 3 1 3 3 1 3 2 2 6 12 9 5 3 1 2 5 4 3 3 2 1 2 3 5 6 5 7 9 8 5 2 2 1 4 9 11 11 11
16 15 14 13 13 14 15 13 13 13 13 16 16 11 9 14 18 17 10 2 5 5 7 10 10 6 6 7 6 6 6 6 7 6 5 5 6 7 8 6 2 3 4 3 3 4 4 2 1 2 1 2 4 2 1 3 3 3 6 6 3 2 2 2 4 3 3 3 1 2 3 2 7 8 6 5 7 5 1 2 1 3 8 10 9 10 10
16 15 14 13 12 13 14 13 12 12 12 15 16 12 9 13 18 18 11 4 4 5 7 10 10 8 8 8 7 6 6 7 7 6 5 5 8 10 8 3 4 3 2 3 2 2 4 1 2 2 2 1 2 2 2 1 3 3 5 4 3 5 4 3 4 4 3 3 1 3 4 1 7 9 6 6 4 1 4 4 4 5 9 11 11 13 12
16 15 14 13 12 12 13 12 11 10 10 12 15 12 9 11 15 16 12 6 2 4 6 9 10 10 10 9 8 8 7 7 7 7 6 6 9 11 5 1 4 6 5 6 4 2 4 3 2 3 2 1 2 1 1 1 2 5 6 6 5 5 4 3 4 4 3 2 2 2 4 4 8 8 5 6 4 5 6 6 8 10 9 10 12 12 10
15 14 13 13 12 11 11 12 11 10 8 10 14 12 7 10 12 12 14 11 4 4 5 7 10 11 10 10 10 10 10 8 8 7 6 6 8 7 4 5 6 5 4 5 5 2 3 5 4 2 2 2 2 2 2 1 4 7 6 5 4 5 5 3 4 4 3 2 4 2 3 5 7 6 4 5 7 7 7 7 8 9 9 10 10 9 8
15 14 13 12 11 10 10 10 11 10 8 9 13 11 7 8 9 11 13 10 5 4 2 2 5 9 10 10 10 10 10 10 10 9 7 7 5 5 6 6 6 5 4 4 5 4 4 5 4 3 3 4 4 4 4 2 1 5 6 4 4 6 5 3 4 5 5 5 5 4 4 5 7 7 6 5 8 11 11 10 9 7 8 8 8 9 10
14 14 12 11 10 10 9 9 10 10 9 8 11 12 9 7 9 13 13 6 2 2 1 1 2 6 8 9 9 9 9 9 11 11 10 8 5 4 6 6 6 5 4 4 5 6 6 5 5 4 4 4 5 5 3 1 2 5 4 3 4 6 4 2 4 6 7 7 6 6 7 7 8 9 8 7 8 10 11 11 10 9 9 9 8 9 10
14 13 12 10 9 9 8 8 8 8 8 7 8 9 9 7 9 13 11 4 0 0 1 2 3 4 5 7 9 9 8 9 10 10 11 10 7 4 5 6 6 5 5 6 5 5 4 3 4 3 3 4 5 4 3 3 5 5 3 1 6 6 4 2 4 4 2 4 6 7 7 7 7 7 8 8 9 10 10 9 9 8 9 10 9 9 9
13 14 12 10 9 8 7 7 6 6 6 7 8 9 8 7 9 12 9 4 3 4 0 4 4 2 3 5 8 8 8 9 8 9 10 10 8 6 5 4 3 3 5 6 6 5 3 3 4 2 4 4 5 4 4 4 3 3 4 4 5 3 5 3 4 3 2 5 8 7 7 7 6 6 6 7 8 9 9 8 9 8 9 8 7 7 6
13 14 12 9 8 7 6 6 6 5 4 5 7 10 9 7 8 10 9 6 5 5 2 3 4 2 2 5 6 6 7 8 8 9 10 9 7 7 7 5 2 2 4 4 3 4 4 3 4 5 5 5 6 5 3 3 2 1 5 5 2 3 5 4 5 6 5 7 8 8 7 7 7 7 7 6 6 7 8 8 8 9 8 8 8 7 6
13 13 11 9 8 7 6 6 5 5 4 3 5 8 8 6 7 8 9 8 5 3 2 2 4 3 4 5 4 5 7 9 8 7 8 9 8 7 7 7 4 2 3 3 2 3 3 3 4 5 4 4 5 4 2 3 4 2 5 6 4 3 5 5 2 3 4 5 6 5 4 5 6 7 8 7 6 7 8 7 8 8 7 6 6 6 7
12 12 11 10 8 7 6 5 5 6 5 3 3 6 6 4 5 6 7 8 5 4 4 3 3 3 2 3 4 5 7 8 8 8 7 8 8 7 7 7 5 4 4 4 2 2 4 5 4 4 4 4 3 2 1 0 2 0 4 6 6 5 6 6 4 3 5 6 4 1 3 6 7 6 7 7 5 5 6 6 6 6 4 3 3 3 4
12 13 11 9 8 7 6 4 4 5 4 3 6 8 5 1 6 8 7 7 6 6 6 3 1 3 2 3 5 6 6 7 7 7 6 7 7 7 6 5 5 5 4 4 3 3 4 5 4 3 3 3 4 3 2 2 1 3 5 7 7 5 4 5 4 4 6 6 3 3 4 7 7 5 6 5 4 4 5 4 3 3 4 4 3 3 2
13 13 11 9 7 6 5 4 3 3 4 5 8 9 5 4 6 9 8 6 7 6 5 4 1 1 3 4 4 4 5 4 4 4 5 4 4 6 7 5 4 4 3 2 3 4 2 3 3 2 3 3 4 4 4 3 2 5 7 7 5 3 4 4 4 5 6 5 4 6 7 7 6 5 5 4 4 4 4 5 6 7 6 4 3 3 3
13 12 10 9 6 5 4 3 2 2 6 8 8 6 2 2 5 9 7 6 6 6 5 4 1 2 3 2 1 3 5 4 1 1 3 4 3 4 6 5 5 5 5 3 3 3 3 3 2 2 4 3 3 3 4 5 2 6 8 7 5 4 5 4 4 6 6 4 4 6 7 6 4 4 4 4 4 3 3 5 9 9 5 2 3 4 3
12 11 9 8 5 3 3 2 2 1 6 7 5 3 3 3 6 8 6 5 6 5 5 4 3 0 2 3 2 1 5 5 3 4 2 4 4 2 2 3 3 4 3 3 2 1 2 2 2 1 3 2 2 3 4 4 3 6 6 5 4 4 4 3 2 4 4 3 2 3 4 4 4 4 5 4 2 3 3 3 7 8 4 2 3 3 3
11 9 8 6 3 2 3 2 3 2 3 3 2 3 4 6 8 7 4 3 5 6 4 3 3 1 2 2 3 2 3 5 3 2 1 4 5 3 1 2 2 1 0 2 3 2 0 1 2 0 2 1 1 3 4 3 4 4 3 3 4 3 3 3 2 2 2 3 2 1 1 4 5 4 5 2 1 3 2 1 2 6 4 1 1 1 2
9 7 5 3 1 3 4 3 3 3 5 5 2 2 3 6 7 5 2 3 5 5 3 3 4 1 2 3 3 2 2 4 2 1 2 3 3 4 2 0 2 2 0 2 3 3 2 1 2 0 2 2 0 3 4 2 3 2 1 3 4 3 2 1 1 1 2 3 2 2 3 3 2 2 2 1 1 2 1 3 1 3 2 2 2 3 3
6 4 1 2 5 6 4 3 4 6 7 3 3 5 3 5 5 3 1 2 4 3 2 2 4 3 2 2 3 2 3 4 2 2 2 2 2 3 3 2 1 1 1 2 4 3 1 2 3 2 2 2 1 2 3 2 1 1 1 1 3 4 3 2 3 2 2 2 1 1 1 1 1 2 2 1 2 2 2 3 2 2 1 3 3 2 2
1 1 4 6 8 6 5 4 4 5 4 2 5 5 4 3 1 0 1 3 5 3 2 1 2 2 3 2 4 2 3 3 2 2 2 1 1 2 3 4 2 2 2 2 4 2 3 3 4 4 1 2 2 1 2 3 3 1 0 1 1 2 4 4 4 3 3 3 1 0 1 2 3 2 1 1 3 2 1 3 3 0 1 4 5 3 4
4 6 7 7 6 6 5 3 2 2 3 3 3 3 2 1 2 2 4 5 5 4 3 4 2 2 2 1 3 2 3 1 1 2 1 2 2 2 2 3 2 2 2 3 2 1 2 2 3 4 3 3 3 2 2 2 3 2 2 3 2 1 2 3 3 3 4 4 3 2 3 3 4 3 1 2 3 3 2 2 4 3 3 3 3 3 4
8 8 6 6 5 3 2 2 3 2 2 2 3 3 2 3 3 3 3 2 2 3 3 3 2 2 2 1 3 3 4 2 2 2 2 2 2 2 1 2 2 1 3 3 1 2 2 2 2 4 4 3 3 1 1 2 3 3 3 4 4 3 3 3 3 4 4 5 4 3 3 4 4 3 2 3 4 3 1 2 4 5 4 3 3 4 4
9 6 7 8 4 1 3 4 3 1 1 1 2 2 2 3 3 2 2 1 1 2 1 2 3 3 3 2 3 3 3 3 3 3 3 1 1 2 2 2 1 1 4 3 2 1 4 4 2 4 3 2 3 3 3 3 2 3 4 4 5 5 4 3 3 4 5 5 2 1 2 4 4 3 3 4 4 3 2 3 5 6 4 2 2 3 3
8 6 6 3 2 5 5 6 5 2 2 3 3 2 1 1 1 1 1 2 2 1 1 2 2 2 2 2 1 2 3 3 3 3 2 1 0 2 3 3 1 2 4 3 1 0 4 4 3 4 2 3 6 5 2 2 3 4 4 4 5 6 6 6 4 5 5 4 3 3 3 3 4 5 4 4 5 4 2 4 5 6 3 3 3 1 4
3 4 2 3 5 5 5 6 4 4 3 1 1 0 1 1 0 0 2 3 2 2 1 1 1 1 1 3 3 2 2 2 2 2 3 2 1 1 4 3 2 2 4 2 2 1 4 4 3 4 3 3 5 4 2 4 4 4 3 4 5 7 8 8 7 5 4 3 4 5 4 3 4 5 4 3 4 4 3 4 5 5 4 3 2 3 5
4 4 3 3 2 2 4 5 4 2 1 1 1 1 1 0 1 1 1 1 1 1 1 1 2 1 2 3 4 2 3 3 3 2 2 1 2 1 4 3 2 3 4 3 2 3 4 3 4 4 3 5 5 3 3 4 5 5 5 4 5 6 8 9 7 4 4 5 5 4 3 3 4 5 3 2 4 4 4 5 5 4 3 3 4 6 4
5 3 2 2 2 3 2 2 1 0 1 1 0 0 1 2 2 1 1 2 1 0 1 0 1 1 2 2 2 1 2 2 2 2 2 1 0 1 3 3 2 3 3 3 3 4 3 4 5 3 3 5 2 3 4 5 6 7 7 4 3 4 8 8 5 3 4 4 4 3 3 3 3 3 2 4 5 4 3 4 5 6 5 5 6 6 4
2 2 3 2 1 1 1 1 1 1 1 2 2 1 2 2 2 2 2 2 2 1 0 1 2 1 1 0 1 1 1 1 1 2 2 2 2 2 2 3 3 3 3 3 4 4 3 3 4 3 4 3 1 2 4 4 4 6 7 5 2 2 6 6 5 4 5 4 2 3 4 3 2 2 3 4 4 3 3 4 6 7 6 5 6 6 5
5 3 1 0 0 1 1 1 1 2 2 2 2 1 1 2 2 3 2 1 1 1 0 1 3 3 2 0 0 1 1 1 1 1 1 2 2 2 3 3 2 3 4 4 4 4 4 3 3 4 4 4 3 3 4 4 4 5 7 8 5 3 4 5 5 4 4 3 3 4 4 3 2 2 3 3 2 3 4 5 7 7 7 6 7 8 6
3 1 1 1 1 1 2 2 2 3 3 2 0 2 3 2 3 3 2 0 1 1 1 2 2 4 3 1 1 1 0 1 2 1 0 2 3 2 2 3 3 3 4 4 4 5 4 3 4 4 2 2 3 4 4 5 5 4 5 7 7 6 4 5 6 5 4 4 4 4 4 4 4 3 3 3 3 4 4 5 6 6 6 6 7 7 5
2 1 2 2 1 2 3 3 2 1 1 1 2 3 3 3 3 4 2 1 2 2 2 2 2 3 2 2 2 2 1 1 2 2 1 2 3 2 2 2 3 3 4 4 5 5 4 4 4 4 4 4 5 5 5 5 5 5 5 5 6 7 6 5 6 7 6 7 7 6 5 5 4 3 3 4 4 4 5 5 6 6 6 6 6 6 5
2 1 3 2 1 3 4 3 2 1 2 2 2 2 2 1 2 3 2 2 3 2 2 2 3 3 2 0 1 3 2 1 2 2 1 1 2 2 2 2 3 3 4 5 5 4 4 4 3 4 5 5 5 5 4 4 5 6 6 6 5 4 4 4 4 5 6 7 8 8 7 7 6 6 6 6 6 6 6 6 7 7 7 7 7 6 6
1 2 3 2 2 3 3 1 0 1 2 2 1 1 1 1 2 3 3 1 2 3 2 2 3 3 2 0 1 3 2 1 1 1 1 1 2 2 2 3 4 4 4 3 4 5 4 4 3 4 4 4 4 4 4 4 3 4 6 8 9 7 4 2 1 1 3 8 10 8 6 7 8 9 8 6 7 8 7 7 8 8 8 8 8 8 7
2 3 3 3 4 3 2 1 1 2 3 2 1 1 1 0 2 3 2 2 2 2 2 2 1 1 2 2 2 3 2 1 2 3 3 3 3 3 3 4 5 5 4 4 4 4 4 4 4 3 3 3 4 4 5 5 4 3 4 7 10 12 10 7 4 5 7 9 11 9 6 7 10 9 5 4 6 7 5 4 6 8 8 9 9 8 8
3 3 4 4 4 2 1 1 2 1 2 2 1 1 1 1 2 3 2 2 3 2 2 2 1 1 2 2 2 2 2 2 2 3 4 4 3 3 4 5 4 5 5 5 4 4 4 4 4 3 4 4 4 5 6 7 7 6 5 4 5 9 13 12 8 5 5 8 11 11 8 6 10 12 9 6 7 8 6 6 6 7 7 9 10 9 9
3 3 3 3 3 2 2 2 1 1 1 1 2 2 1 2 1 2 2 1 3 3 2 2 2 3 3 2 1 1 2 2 3 4 4 4 3 3 4 5 4 5 5 5 5 5 4 4 3 3 4 5 6 7 9 9 8 8 8 7 5 7 11 11 8 7 6 5 6 7 8 9 10 12 11 9 8 7 7 7 7 6 6 8 9 9 9
Wind_Direction
352 353 352 350 349 350 353 355 359 1 356 350 344 329 297 262 299 111 120 173 217 239 278 279 270 269 269 277 281 279 276 270 274 278 282 292 290 280 273 269 263 257 271 286 276 277 285 236 211 185 205 220 188 10 330 296 200 82 329 304 317 168 175 201 230 292 300 295 303 298 292 279 249 245 259 254 244 239 236 247 259 236 267 270 150 131 116
352 353 353 351 350 352 354 357 360 3 4 356 337 318 302 309 318 132 125 132 254 268 302 299 293 292 285 287 295 299 301 296 290 287 281 275 268 265 266 270 269 258 251 262 261 264 280 259 199 190 235 227 124 37 354 336 310 111 176 280 333 286 259 222 221 234 246 277 290 279 312 354 329 293 283 257 245 250 250 240 249 263 257 255 251 113 126
352 354 354 351 351 353 355 357 358 360 3 358 337 299 297 307 289 192 120 68 306 294 329 315 303 306 309 308 304 300 295 282 278 281 284 289 284 273 275 286 290 286 272 262 257 258 268 266 231 149 147 81 198 212 56 24 332 331 117 135 103 296 318 317 257 239 205 222 258 234 336 3 334 327 324 285 255 258 299 271 243 254 262 282 342 126 134
352 355 354 353 353 356 357 357 356 355 358 354 337 289 285 302 299 332 23 46 341 327 9 344 325 331 333 317 293 282 278 280 291 288 277 276 287 286 282 291 298 300 292 280 266 259 253 256 263 205 147 134 232 224 157 165 233 292 52 47 126 158 213 39 298 289 143 172 160 86 28 360 346 352 354 335 300 272 266 261 251 252 266 14 94 137 135
353 356 356 355 356 359 360 358 354 350 349 349 337 279 267 300 356 7 354 352 348 351 9 357 346 357 344 318 316 306 289 279 322 312 296 265 277 282 272 278 283 284 289 282 272 273 264 254 255 240 156 113 196 236 202 201 203 162 161 247 237 233 226 194 268 251 153 157 143 87 31 360 354 354 357 353 347 336 299 254 237 237 249 242 152 144 134
355 358 358 358 359 1 2 360 356 349 340 338 324 277 278 324 33 47 8 325 358 1 357 357 3 14 5 335 344 335 318 320 24 307 310 324 298 284 282 282 270 263 272 268 262 274 272 265 277 339 55 98 134 255 236 206 179 168 209 233 223 248 244 195 211 241 217 181 162 149 157 285 332 339 347 1 12 7 347 322 306 267 145 136 141 130 118
356 359 359 360 2 4 4 3 360 352 340 328 308 295 4 3 29 41 332 315 29 28 1 2 12 16 9 0 6 353 339 353 19 4 11 3 340 338 316 296 284 283 301 316 318 311 302 309 347 12 18 63 114 327 275 200 194 216 228 231 220 253 252 207 208 235 237 217 193 189 203 217 230 263 312 352 26 26 13 1 356 40 113 120 125 114 103
355 359 1 2 4 6 7 6 5 0 353 346 343 29 21 5 18 2 313 321 43 55 21 14 22 23 11 5 11 356 348 0 3 16 44 23 348 359 346 324 325 332 349 24 31 11 1 359 350 346 355 19 59 65 150 180 280 255 230 269 302 275 240 221 223 231 234 220 206 212 217 216 215 221 247 284 350 16 46 44 0 13 100 103 102 100 100
355 359 2 4 6 8 9 10 9 10 9 4 14 40 9 348 3 338 305 331 9 8 39 27 21 35 23 4 5 351 351 7 0 349 22 26 11 4 355 351 349 339 356 24 20 356 345 342 334 329 338 335 301 268 185 188 247 269 290 27 333 280 215 179 230 231 231 213 206 212 212 220 228 227 237 247 257 354 48 81 55 25 108 103 94 97 111
356 1 3 4 8 9 11 13 12 16 22 14 6 24 7 350 352 328 298 321 7 354 29 26 12 39 39 5 14 358 343 359 2 338 353 10 7 359 355 360 1 351 8 9 351 336 327 318 314 310 306 296 287 288 267 255 197 103 86 55 3 292 284 192 219 230 236 223 214 211 213 232 234 239 281 266 218 156 93 83 93 118 152 136 125 136 136
357 2 3 5 8 10 12 16 14 15 20 10 344 355 11 354 338 323 295 295 27 24 35 33 13 9 5 108 53 23 345 349 3 355 343 347 351 352 354 359 4 17 9 350 327 315 306 294 288 283 279 279 275 259 263 276 261 134 133 123 156 271 271 280 258 235 250 318 292 218 207 227 262 328 343 334 181 162 157 111 91 98 119 109 104 122 133
358 3 4 5 8 10 12 16 16 14 13 3 340 345 10 351 320 313 310 329 28 26 31 58 38 3 5 37 82 61 22 357 359 356 343 334 340 349 353 355 358 358 344 331 321 311 295 271 256 252 245 249 257 248 237 262 271 159 143 136 151 235 250 51 327 272 34 4 346 223 202 229 323 337 356 12 47 169 162 121 101 105 113 109 111 126 140
359 3 4 5 8 11 12 14 15 12 8 2 350 350 10 356 330 330 343 354 32 8 353 49 50 9 11 11 345 36 114 29 350 355 348 334 343 354 354 348 345 342 333 326 319 311 298 270 246 242 235 230 238 243 237 250 299 304 154 138 142 168 179 101 70 31 41 10 291 200 255 349 22 20 8 10 21 62 119 119 122 133 134 130 128 127 129
0 3 4 6 8 10 12 13 12 8 6 2 350 348 15 9 353 354 342 334 55 29 355 28 27 346 354 13 352 349 139 170 291 331 332 337 353 354 348 345 340 333 328 325 317 307 303 300 276 249 249 251 237 249 295 326 321 314 308 171 153 143 124 108 124 123 229 217 173 110 27 349 26 31 19 15 23 18 24 128 141 130 129 131 117 102 93
358 2 4 5 8 11 11 13 11 7 7 6 358 5 29 13 355 346 327 316 50 53 15 21 1 326 336 18 8 354 7 7 269 253 268 326 0 348 346 356 346 331 325 324 316 314 332 331 307 284 331 348 324 317 343 352 333 314 303 272 231 169 161 195 191 183 213 217 198 179 179 203 19 19 7 1 6 359 349 85 112 39 56 110 110 101 96
354 1 5 4 8 11 10 13 13 8 7 6 5 15 31 13 356 344 332 337 38 52 22 11 348 323 341 18 14 359 358 352 347 321 224 53 43 23 11 15 351 328 331 334 323 324 337 324 310 303 320 41 52 335 317 336 340 327 317 286 248 225 191 203 216 205 201 206 219 262 119 72 35 26 355 340 348 349 333 192 142 7 53 114 113 110 112
354 360 3 4 9 11 10 13 12 9 8 2 357 0 15 12 0 341 323 2 64 52 26 10 356 345 6 15 6 1 357 342 340 333 327 31 47 27 5 14 339 267 300 333 329 306 289 290 313 323 28 58 31 318 301 337 11 336 327 312 262 236 218 237 245 240 229 228 234 85 94 57 15 6 345 337 341 329 300 204 162 184 124 118 121 128 130
353 357 2 5 8 10 12 14 10 8 9 2 356 358 9 9 0 344 328 26 74 49 31 24 20 19 17 9 1 2 360 344 337 331 332 12 32 5 344 355 2 212 219 272 293 276 278 267 289 322 28 39 341 318 41 6 345 324 330 330 321 340 350 292 265 267 267 255 222 101 97 42 343 336 337 334 321 304 250 121 139 143 123 116 115 113 105
351 355 1 2 5 11 13 14 11 6 4 2 359 4 17 11 1 355 357 36 75 55 35 29 33 35 23 16 12 11 12 360 349 348 355 11 0 333 311 322 4 355 309 305 304 303 312 300 140 324 337 82 359 0 106 1 329 345 341 337 358 4 359 351 344 334 308 283 225 109 98 13 314 317 334 339 322 113 93 51 30 72 105 109 97 84 81
350 352 359 360 2 11 13 14 14 3 357 359 353 351 13 21 8 3 4 1 42 80 52 36 41 43 36 33 25 15 18 15 2 359 1 358 343 329 314 72 14 359 2 352 354 16 342 354 54 357 330 88 62 337 242 205 92 49 360 348 22 18 351 13 26 354 324 349 29 85 91 26 333 326 346 358 17 96 92 56 47 54 71 89 86 79 87
350 350 356 359 0 5 9 16 17 4 352 354 347 341 2 25 15 2 354 349 6 78 55 38 47 49 45 42 33 25 26 23 12 5 351 338 336 339 13 43 11 0 16 351 339 9 6 357 6 344 328 44 31 321 328 10 86 68 24 357 30 21 350 18 48 5 327 27 58 59 73 42 18 26 49 31 38 61 63 61 68 65 65 74 70 59 70
350 348 350 355 359 1 4 10 16 12 1 352 351 353 9 28 14 344 337 351 41 82 60 46 67 64 58 50 42 39 37 27 16 11 353 332 339 10 30 27 13 14 19 349 340 1 11 4 359 345 0 23 2 345 348 324 86 61 45 24 26 33 29 40 58 48 41 68 94 98 86 70 62 68 71 56 60 64 57 53 60 64 70 74 65 53 52
347 346 345 348 355 358 0 4 13 21 18 6 4 2 1 12 0 331 322 333 92 122 160 179 98 65 55 48 43 41 38 33 27 20 6 345 347 42 47 21 358 352 6 12 3 355 358 8 3 352 11 18 349 330 326 304 33 37 45 71 59 48 39 44 88 92 79 73 89 98 84 76 77 76 65 56 67 72 67 62 58 56 65 70 66 61 50
345 343 341 342 347 353 358 359 8 22 28 29 23 1 340 344 353 340 331 333 192 230 114 89 50 32 23 28 36 31 24 30 33 27 19 10 6 35 50 19 354 349 10 12 348 323 333 345 321 325 40 22 341 332 355 27 38 16 334 67 78 52 2 27 104 133 123 89 100 107 99 94 91 86 78 73 72 72 73 79 79 73 73 74 71 70 65
344 342 337 334 338 347 352 351 357 15 24 31 28 5 344 349 357 345 335 332 316 297 247 85 62 18 338 11 31 27 16 18 25 29 33 34 29 21 15 3 338 329 344 346 333 321 325 326 312 335 61 29 341 355 24 17 34 37 5 26 59 16 323 0 87 86 72 105 116 118 115 112 107 100 98 92 84 81 81 87 94 92 90 93 96 96 96
341 340 336 329 328 334 341 342 344 352 3 22 22 5 354 1 5 351 339 332 318 289 258 96 87 93 31 28 22 15 16 18 21 27 32 36 40 28 7 349 303 280 303 315 331 329 323 346 4 10 38 27 344 342 22 359 317 69 61 38 9 299 316 356 74 88 91 112 124 126 123 118 107 101 103 105 104 102 101 102 107 109 110 112 112 110 110
339 340 336 327 320 321 328 330 334 335 332 358 17 0 350 1 14 8 358 351 334 292 292 62 90 97 65 43 19 14 26 21 15 22 30 31 34 30 13 3 0 0 344 327 305 308 320 12 40 20 21 20 339 323 32 11 328 354 66 43 17 359 3 10 53 117 123 131 137 134 122 118 114 110 113 118 123 122 121 119 113 108 108 112 119 125 124
339 337 331 323 313 313 316 315 328 335 323 325 347 330 324 358 24 22 12 359 342 316 325 7 95 123 78 33 16 23 39 32 13 10 19 23 21 20 22 17 10 10 7 349 333 11 20 25 29 19 17 10 342 332 98 272 285 46 71 53 43 34 24 22 27 60 91 115 132 116 99 123 130 125 119 120 123 124 122 114 105 104 104 87 79 103 117
336 332 330 324 311 307 307 302 318 335 328 317 312 296 268 125 42 17 7 357 342 321 309 306 158 152 110 53 28 20 37 41 22 10 11 16 20 22 20 16 12 6 356 349 354 18 45 48 30 16 24 3 328 320 304 265 163 102 74 67 72 66 47 45 48 69 96 111 104 58 97 122 123 110 106 100 74 71 97 106 106 112 108 90 74 68 65
333 330 329 326 311 298 295 290 297 338 339 319 305 289 238 142 45 7 356 354 347 329 305 298 310 99 81 60 25 353 6 26 25 17 8 353 9 26 14 1 8 359 329 352 28 8 19 57 50 47 55 21 327 316 319 316 93 96 77 66 74 87 77 67 68 83 96 100 85 84 105 121 124 123 119 97 56 55 82 91 77 66 60 66 82 86 74
331 329 328 329 318 287 278 276 254 332 336 317 302 294 248 128 21 359 350 347 341 320 295 293 294 144 129 101 25 324 335 348 338 338 343 324 326 24 22 8 16 13 354 7 42 19 7 22 18 73 75 35 328 323 324 314 356 88 83 67 54 53 56 59 87 108 112 110 106 114 124 126 132 146 129 95 70 70 81 90 89 79 54 41 75 77 72
330 331 328 329 317 268 249 248 219 305 342 335 333 5 21 10 357 348 340 342 330 301 284 296 302 231 127 120 133 266 319 326 285 236 290 354 353 12 41 33 42 45 15 337 334 24 41 2 322 23 66 39 309 312 313 319 38 82 91 83 69 65 60 48 74 111 121 122 124 150 148 113 83 96 108 99 90 90 80 96 113 111 112 129 127 130 119
332 332 324 324 319 210 195 203 205 223 326 331 7 34 12 353 351 346 342 343 311 285 279 299 297 304 87 108 135 165 297 314 304 229 61 22 352 317 10 59 72 114 153 325 339 356 346 278 280 101 107 130 301 310 307 346 62 75 94 98 88 81 75 66 50 63 89 88 55 1 110 89 73 89 113 145 200 112 79 306 131 110 102 97 124 161 120
332 329 325 338 81 161 178 181 184 212 239 236 175 76 350 335 341 336 332 340 302 271 260 285 285 247 150 173 153 117 306 300 313 34 56 35 347 325 342 20 194 186 118 0 327 276 237 263 344 3 156 155 347 318 303 328 58 58 71 111 118 118 94 88 201 140 94 84 59 41 64 78 75 106 120 184 230 125 110 277 274 94 105 212 205 214 215
328 337 5 109 131 145 158 176 214 242 248 230 95 63 351 317 317 306 309 326 296 262 219 239 257 263 258 193 132 86 318 307 341 21 21 18 339 334 340 313 256 135 70 337 293 275 156 55 353 318 162 160 225 268 281 299 34 81 115 152 150 152 154 192 224 190 132 130 134 110 101 120 233 208 158 201 245 211 208 257 255 103 121 267 270 266 270
356 122 145 146 145 154 181 206 226 255 280 16 46 26 343 309 290 222 252 267 265 269 306 285 245 282 318 22 87 62 309 321 11 4 339 326 313 335 336 315 314 38 37 295 281 303 63 53 322 296 246 227 272 313 5 345 0 51 251 274 212 186 198 208 210 187 155 147 135 16 302 262 262 256 196 210 254 256 260 281 282 170 203 276 295 332 357
151 153 155 157 164 190 209 183 117 35 3 12 4 335 295 234 206 207 226 237 228 222 274 302 334 5 343 44 81 29 325 347 1 298 308 356 349 344 328 313 336 26 323 267 249 35 59 54 303 290 270 270 302 355 38 348 336 337 319 319 322 272 245 227 202 176 167 179 196 226 256 262 265 267 256 256 265 257 231 259 278 275 264 272 291 321 322
162 164 180 203 212 216 196 101 74 39 3 346 321 292 239 221 224 201 184 196 186 189 240 286 342 10 331 48 69 11 336 328 317 327 20 22 338 316 322 331 5 353 300 293 41 25 323 268 263 276 269 270 292 326 83 41 359 337 312 300 290 276 261 230 195 183 197 214 212 210 246 267 270 264 257 263 269 265 249 263 270 262 254 258 276 285 284
172 196 229 233 231 50 61 83 98 109 155 231 270 266 215 211 224 180 135 153 200 187 229 336 17 14 353 16 68 41 356 325 319 346 19 17 317 347 354 346 14 315 299 313 57 14 291 279 271 278 289 2 51 66 77 62 357 316 301 293 295 297 287 264 213 187 207 234 238 197 236 270 293 306 294 279 272 252 206 213 244 253 252 260 289 290 292
200 235 244 220 90 68 82 105 123 165 222 223 228 251 262 246 245 148 165 206 200 132 59 7 30 45 2 328 357 48 12 324 315 344 347 318 17 5 325 314 0 339 307 310 69 43 292 300 301 291 304 78 91 85 45 348 314 317 322 308 298 293 281 270 248 208 205 228 250 241 246 277 307 313 309 303 302 293 223 207 235 244 217 131 93 1 286
262 289 318 35 51 76 112 133 170 231 259 242 164 271 311 320 337 244 209 197 167 107 66 336 317 102 66 321 316 40 42 348 328 322 307 313 47 346 300 305 349 317 295 321 38 329 286 293 297 293 313 57 92 90 23 338 325 329 332 315 304 295 279 271 263 236 215 225 238 242 255 292 308 309 313 312 300 285 234 217 237 240 210 159 153 262 268
25 17 16 9 13 144 161 180 206 230 322 3 314 274 279 162 174 240 223 118 71 85 104 352 329 33 60 351 326 2 49 15 339 293 284 342 57 309 291 304 319 288 295 336 354 304 291 296 287 287 357 41 40 15 356 353 340 329 325 329 325 304 280 270 259 232 222 235 243 252 279 308 308 311 317 279 258 245 210 203 223 243 246 229 236 259 279
54 30 322 264 222 198 204 217 202 130 1 289 213 10 271 226 208 179 128 115 103 126 138 144 301 335 71 18 320 336 72 27 335 294 288 321 353 274 291 302 291 289 309 326 303 289 293 293 288 305 61 75 47 342 354 6 348 326 319 330 343 305 288 283 271 232 223 232 245 267 288 295 301 306 284 251 243 225 182 180 203 220 229 231 237 262 299
329 284 281 261 200 208 265 234 183 213 248 223 201 191 203 206 182 126 115 125 130 138 73 356 326 320 75 81 293 280 104 80 338 305 304 315 321 310 298 290 288 303 313 303 289 291 291 280 291 342 35 55 46 13 4 355 337 324 323 333 350 299 286 287 275 243 221 209 224 261 271 281 304 296 271 266 258 225 189 187 203 216 229 245 256 263 260
251 209 188 136 326 289 269 187 200 224 211 210 229 224 127 115 111 117 126 117 93 110 119 4 343 324 312 224 302 323 36 121 218 244 305 320 313 296 283 284 298 305 297 289 288 291 293 305 355 35 38 23 16 10 345 334 340 339 332 332 331 303 275 275 276 265 242 229 244 254 254 260 274 258 248 254 248 223 212 205 204 210 220 234 251 257 245
243 192 194 228 258 262 226 193 206 218 197 193 282 37 67 69 67 80 92 21 47 71 53 17 341 313 306 305 252 246 299 299 282 267 225 271 273 280 309 314 304 287 283 290 293 287 294 346 26 36 36 19 8 353 337 333 337 341 335 326 318 308 285 260 255 256 249 244 251 256 254 256 260 262 260 252 235 231 233 224 218 223 226 230 250 267 269
248 257 259 252 233 230 221 212 214 216 131 93 48 54 68 78 77 72 48 350 26 39 10 344 320 294 296 316 297 259 213 242 277 280 264 266 272 289 318 306 296 291 288 283 278 283 310 12 20 355 342 352 349 337 332 330 329 334 331 310 304 318 325 295 263 252 244 238 234 232 237 245 242 242 256 257 247 246 251 245 239 240 239 237 248 258 255
270 254 250 248 214 218 221 220 207 142 86 73 72 76 71 76 103 98 75 22 21 17 346 334 326 302 274 188 288 284 266 226 255 266 268 281 288 294 283 273 271 275 275 274 278 296 329 11 9 337 335 347 343 334 334 330 322 319 312 298 296 323 347 337 320 313 300 282 260 237 230 239 238 225 223 233 240 244 250 252 250 249 246 244 248 251 246
299 272 257 254 247 241 241 256 164 126 97 70 74 122 141 173 98 89 80 29 6 356 338 341 338 315 299 237 255 272 271 254 264 274 264 251 255 254 262 273 275 274 280 300 319 328 341 358 345 320 322 335 330 318 311 311 320 333 329 320 314 308 286 244 135 44 325 310 302 293 288 284 266 237 216 222 238 234 224 226 236 240 241 242 244 247 246
269 265 250 241 249 254 246 231 208 159 149 176 210 165 145 130 83 74 42 328 337 345 314 293 278 304 315 319 298 282 284 281 266 262 256 254 256 254 251 258 269 284 301 323 335 334 330 323 315 309 314 313 299 290 293 306 328 346 329 314 313 312 303 287 245 203 207 225 242 254 280 312 302 289 290 310 291 272 252 237 238 237 239 242 241 244 249
240 245 247 248 258 281 296 261 251 210 162 174 153 71 34 4 76 87 58 327 311 295 280 272 230 229 266 273 263 274 299 301 278 269 267 264 266 268 264 263 277 300 315 327 336 329 313 308 317 332 325 303 287 285 291 295 298 295 283 277 298 307 303 297 290 274 234 217 222 229 230 242 265 272 274 270 265 267 273 270 254 240 239 243 240 237 243
229 234 256 258 251 250 258 266 293 325 326 153 115 91 40 334 24 89 97 287 280 273 277 282 256 245 255 271 276 276 282 280 278 284 289 291 293 295 295 302 319 335 337 333 327 317 306 301 301 301 293 286 285 290 291 289 288 291 288 276 263 268 275 275 273 274 271 249 230 230 229 228 241 259 266 260 250 252 263 267 257 238 235 245 247 240 238